Flag Weather past 2 weeks in Rastatt, Baden-Württemberg, Germany

Now
59 °F

Sunny.


Feels Like: 60 °F
Forecast: 47 / 63 °F
Wind: 3 mph from North

Location: Karlsruhe - Baden Wurttemberg

Current Time: Oct 30, 2014 at 5:24:08 PM

Latest Report: Oct 30, 2014 at 4:50 PM


Visibility: 10 mi

Pressure: 30.27 "Hg

Humidity: 72%

Dew point: 50 °F

Location of RastattLocation

Historic Weather in Rastatt — Graph

°F

Rastatt temperature yesterday

Maximum temperature yesterday: 59 °F (at 2:20 PM)
Minimum temperature yesterday: 41 °F (at 5:20 AM)
Average temperature yesterday: 50 °F

Past Weeks' High & Low Weather Summary

 TemperatureHumidityPressure
High75 °F (Oct 19, 2:50 PM)100% (Oct 18, 6:50 AM)30.33 "Hg (Oct 18, 6:50 AM)
Low36 °F (Oct 24, 6:20 AM)50% (Oct 19, 3:50 PM)29.65 "Hg (Oct 21, 5:20 PM)
Average54 °F82%30.11 "Hg
* Reported Oct 15 5:20 PM — Oct 30 4:20 PM, Rastatt, Weather by CustomWeather, © 2014

Note: Actual official high and low records may vary slightly from our data, if they occured in-between our weather recording intervals... More about our weather records

Advertising

Rastatt weather history for previous 24 hours

 ConditionsComfort  
Time TempWeatherWind HumidityBarometerVisibility
4:20 PM
Oct 30
61 °FSunny.5 mph68%30.24 "Hg10 mi
3:50 PM61 °FPassing clouds.5 mph68%30.24 "HgN/A
3:20 PM61 °FSunny.5 mph68%30.24 "Hg10 mi
2:50 PM63 °FSunny.2 mph59%30.24 "Hg10 mi
2:20 PM63 °FScattered clouds.2 mph64%30.24 "HgN/A
1:50 PM61 °FScattered clouds.2 mph68%30.27 "HgN/A
1:20 PM61 °FPartly sunny.2 mph68%30.27 "HgN/A
12:50 PM59 °FPartly sunny.3 mph72%30.27 "HgN/A
12:20 PM61 °FPartly sunny.5 mph68%30.27 "HgN/A
11:50 AM59 °FBroken clouds.3 mph72%30.27 "HgN/A
11:20 AM57 °FBroken clouds.3 mph77%30.27 "HgN/A
10:50 AM57 °FBroken clouds.3 mph77%30.27 "HgN/A
10:20 AM55 °FPassing clouds.6 mph82%30.24 "HgN/A
9:50 AM54 °FBroken clouds.6 mph88%30.24 "HgN/A
9:20 AM54 °FPartly sunny.5 mph88%30.24 "HgN/A
8:50 AM52 °FPartly sunny.3 mph94%30.24 "Hg6 mi
8:20 AM52 °FScattered clouds.5 mph94%30.24 "Hg6 mi
7:50 AM52 °FScattered clouds.5 mph94%30.24 "Hg5 mi
7:20 AM52 °FPartly sunny.2 mph94%30.21 "Hg4 mi
6:50 AM52 °FPassing clouds.1 mph94%30.21 "Hg5 mi
6:20 AM52 °FPassing clouds.No wind88%30.21 "Hg4 mi
5:50 AM52 °FPassing clouds.2 mph88%30.21 "Hg4 mi
5:20 AM52 °FPassing clouds.No wind88%30.18 "Hg4 mi
4:50 AM52 °FPassing clouds.2 mph88%30.18 "Hg4 mi
11:20 PM
Oct 29
52 °FPassing clouds.2 mph88%30.15 "Hg4 mi
10:50 PM50 °FPassing clouds.1 mph94%30.15 "Hg4 mi
10:20 PM50 °FLight rain. Passing clouds.2 mph94%30.15 "Hg5 mi
9:50 PM52 °FLight rain. Passing clouds.2 mph88%30.15 "Hg5 mi
9:20 PM52 °FSprinkles. Passing clouds.2 mph88%30.15 "HgN/A
8:50 PM50 °FPassing clouds.2 mph88%30.12 "Hg6 mi
8:20 PM50 °FPassing clouds.2 mph88%30.12 "HgN/A
7:50 PM50 °FPassing clouds.2 mph88%30.12 "Hg6 mi
7:20 PM48 °FFog.2 mph94%30.12 "Hg6 mi
6:50 PM48 °FFog.2 mph87%30.12 "Hg6 mi
6:20 PM50 °FFog.1 mph88%30.09 "Hg5 mi
5:50 PM52 °FClear.2 mph82%30.09 "Hg10 mi
5:20 PM54 °FClear.3 mph77%30.09 "Hg10 mi
Weather by CustomWeather, © 2014

See weather overviewHow to use our weather pages